This is the latest recevied weather packets stored in our database for station/object KO4IEJ. If no packets are shown the sender has not sent any weather packets the latest 10 day(s).
| Time | Temp. | Humidity | Pressure | Rain* | Wind** | Luminosity | Snow |
|---|---|---|---|---|---|---|---|
| 1777614355 | -1.11° C | 95% | 1021.6 hPa | 0 mm | - | - | - |
| 1777608063 | -1.11° C | 94% | 1021.6 hPa | 0 mm | - | - | - |
| 1777607153 | -1.11° C | 94% | 1021.6 hPa | 0 mm | - | - | - |
| 1777601772 | -1.11° C | 94% | 1020.5 hPa | 0.25 mm | - | - | - |
| 1777599055 | -0.56° C | 94% | 1020.2 hPa | 0.25 mm | - | - | - |
| 1777594561 | 0° C | 93% | 1019.9 hPa | 0.25 mm | - | - | - |
| 1777586456 | -0.56° C | 92% | 1019.6 hPa | 0.25 mm | - | - | - |
| 1777584660 | 0° C | 91% | 1019.7 hPa | 0 mm | - | - | - |
| 1777582858 | 0.56° C | 92% | 1019.8 hPa | 0 mm | - | - | - |
| 1777575654 | -0.56° C | 94% | 1020.2 hPa | 0 mm | - | - | - |
| 1777573856 | 0° C | 94% | 1019.8 hPa | 0 mm | - | - | - |
| 1777571154 | 0.56° C | 94% | 1020.2 hPa | 0 mm | - | - | - |
| 1777563974 | 0° C | 93% | 1020.3 hPa | 0 mm | - | - | - |
| 1777561272 | 0° C | 94% | 1020.4 hPa | 0 mm | - | - | - |
| 1777554958 | -0.56° C | 95% | 1020.4 hPa | 0 mm | - | - | - |
| 1777554065 | -0.56° C | 95% | 1020.3 hPa | 0 mm | - | - | - |
| 1777549560 | -0.56° C | 95% | 1019.9 hPa | 0 mm | - | - | - |
| 1777547756 | -0.56° C | 95% | 1020.1 hPa | 0 mm | - | - | - |
| 1777543256 | 0.56° C | 95% | 1020 hPa | 0 mm | - | - | - |
| 1777540559 | 0.56° C | 95% | 1020.2 hPa | 0 mm | - | - | - |
| 1777539662 | 0.56° C | 95% | 1020.2 hPa | 0 mm | - | - | - |
| 1777537865 | 0.56° C | 94% | 1020.4 hPa | 0 mm | - | - | - |
| 1777536959 | 0.56° C | 94% | 1020.6 hPa | 0 mm | - | - | - |
| 1777534279 | 1.11° C | 94% | 1020.5 hPa | 0.25 mm | - | - | - |
| 1777532469 | 1.11° C | 94% | 1020.8 hPa | 0.25 mm | - | - | - |
* Rain latest hour (hover to see other rain measurements)
** Current wind speed in m/s (hover to see current wind gust speed)